Waarnemingen

Advertentie
Mijn weer
Vlieland, Nederland (6242): temperatuur & dauwpunt: 13.11.2017 20:00:00 - 19.11.2017 20:00:00 (CET)Vlieland, Nederland (6242): temperatuur 5cm: 13.11.2017 20:00:00 - 19.11.2017 20:00:00 (CET)Vlieland, Nederland (6242): windsnelheid & windstoten: 13.11.2017 20:00:00 - 19.11.2017 20:00:00 (CET)Vlieland, Nederland (6242): windrichting: 13.11.2017 20:00:00 - 19.11.2017 20:00:00 (CET)Vlieland, Nederland (6242): luchtdruk: 13.11.2017 20:00:00 - 19.11.2017 20:00:00 (CET)Vlieland, Nederland (6242): zicht: 13.11.2017 20:00:00 - 19.11.2017 20:00:00 (CET)
Datum & Tijd tt [°C] td [°C] tt 5cm [°C] ff [km/u] ff [kn] fx [km/u] fx [kn] dd ppp [hPa] vv [km]
19.11.2017 20:00:00 7,5 4,3 6,9 41 22 61 33 WNW 1018,2 10
19.11.2017 19:00:00 8,7 4,5 8,1 41 22 - - NW 1017,9 10
19.11.2017 18:00:00 8,3 4,0 7,2 44 24 61 33 NW 1017,4 10
19.11.2017 17:00:00 8,9 3,4 8,0 39 21 68 37 NW 1017,1 10
19.11.2017 16:00:00 9,1 3,4 8,5 44 24 - - NW 1016,5 10
19.11.2017 15:00:00 8,7 3,0 7,9 44 24 72 39 NW 1016,1 10
19.11.2017 14:00:00 8,5 4,2 8,4 39 21 58 31 NNW 1016,3 9
19.11.2017 13:00:00 8,9 3,4 8,6 52 28 - - NW 1016,1 10
19.11.2017 12:00:00 9,6 3,7 9,1 48 26 61 33 NW 1015,4 10
19.11.2017 11:00:00 9,5 3,7 8,8 50 27 65 35 NW 1015,1 9
19.11.2017 10:00:00 8,6 3,4 7,7 54 29 - - NW 1014,3 10
19.11.2017 09:00:00 8,0 4,3 7,4 46 25 79 43 NW 1013,9 8
19.11.2017 08:00:00 8,0 4,6 7,0 54 29 90 49 NW 1013,3 7
19.11.2017 07:00:00 8,7 3,0 7,6 54 29 - - NW 1012,7 9
19.11.2017 06:00:00 8,2 3,4 6,3 57 31 83 45 NW 1012,3 10
19.11.2017 05:00:00 8,2 3,2 7,4 55 30 76 41 NW 1012,4 10
19.11.2017 04:00:00 8,4 4,0 7,8 52 28 - - NW 1012,2 10
19.11.2017 03:00:00 7,8 4,2 6,7 52 28 76 41 WNW 1012,4 10
19.11.2017 02:00:00 7,0 3,6 7,0 59 32 61 33 NW 1012,7 4,1
19.11.2017 01:00:00 8,2 2,0 7,8 50 27 - - NW 1012,8 -
19.11.2017 00:00:00 8,4 1,0 8,0 44 24 58 31 NW 1013,1 10
18.11.2017 23:00:00 8,0 1,4 7,7 46 25 58 31 NW 1013,3 10
18.11.2017 22:00:00 7,9 0,5 7,2 46 25 - - NW 1013,6 10
18.11.2017 21:00:00 7,0 1,8 6,8 37 20 72 39 NW 1013,7 10
18.11.2017 20:00:00 6,7 1,4 6,4 42 23 58 31 NW 1014,4 10
18.11.2017 19:00:00 8,3 -0,3 7,0 37 20 - - NW 1013,9 10
18.11.2017 18:00:00 8,5 0,5 7,7 35 19 54 29 NW 1014,2 10
18.11.2017 17:00:00 8,6 0,8 7,8 39 21 54 29 NW 1014,2 10
18.11.2017 16:00:00 8,2 0,3 7,7 44 24 - - NW 1014,5 10
18.11.2017 15:00:00 8,8 0,8 7,8 44 24 68 37 NW 1014,3 10
18.11.2017 14:00:00 8,6 2,0 8,0 55 30 65 35 NNW 1014,1 4,5
18.11.2017 13:00:00 7,8 3,9 7,9 50 27 - - NW 1014,1 10
18.11.2017 12:00:00 8,1 5,2 7,2 46 25 83 45 NW 1014,2 10
18.11.2017 11:00:00 9,8 5,5 9,8 61 33 79 43 W 1013,9 3,0
18.11.2017 10:00:00 9,0 5,4 8,5 54 29 - - WNW 1014,1 7
18.11.2017 09:00:00 9,3 5,7 8,8 61 33 68 37 W 1014,8 10
18.11.2017 08:00:00 8,5 6,1 8,3 52 28 68 37 W 1015,5 6
18.11.2017 07:00:00 8,9 4,8 8,7 54 29 - - W 1016,0 10
18.11.2017 06:00:00 8,9 4,8 8,6 52 28 61 33 W 1016,7 10
18.11.2017 05:00:00 8,8 4,6 8,4 48 26 58 31 W 1017,7 10
18.11.2017 04:00:00 8,8 4,1 8,5 44 24 - - W 1018,5 10
18.11.2017 03:00:00 8,8 3,7 8,3 42 23 50 27 W 1019,7 10
18.11.2017 02:00:00 8,8 3,8 8,5 41 22 50 27 W 1020,3 10
18.11.2017 01:00:00 8,9 3,9 8,5 39 21 - - W 1021,1 10
18.11.2017 00:00:00 8,9 2,2 8,5 41 22 47 25 W 1021,8 10
17.11.2017 23:00:00 9,1 2,9 8,5 37 20 47 25 W 1022,3 10
17.11.2017 22:00:00 8,9 3,1 8,4 35 19 - - W 1022,6 10
17.11.2017 21:00:00 9,0 1,9 8,6 41 22 47 25 W 1023,2 10
17.11.2017 20:00:00 8,9 3,5 8,5 34 18 43 23 W 1023,5 10
17.11.2017 19:00:00 8,9 3,3 8,6 31 17 - - W 1024,1 10
17.11.2017 18:00:00 8,9 4,0 8,5 34 18 43 23 W 1024,4 10
17.11.2017 17:00:00 8,8 2,9 8,2 29 16 40 21 W 1024,9 10
17.11.2017 16:00:00 9,1 3,3 8,7 34 18 - - W 1025,2 10
17.11.2017 15:00:00 8,8 4,2 8,5 26 14 36 19 W 1025,2 10
17.11.2017 14:00:00 9,6 3,4 9,8 29 16 40 21 W 1026,0 -
17.11.2017 13:00:00 10,2 3,9 10,4 31 17 - - W 1026,3 10
17.11.2017 12:00:00 8,4 5,0 8,5 24 13 36 19 WNW 1026,6 10
17.11.2017 11:00:00 9,3 4,6 9,6 28 15 40 21 W 1026,7 -
17.11.2017 10:00:00 9,3 2,8 8,5 18 10 - - WNW 1026,6 10
17.11.2017 09:00:00 7,7 4,3 6,9 13 7 32 18 WNW 1026,7 10
17.11.2017 08:00:00 8,8 3,1 7,7 15 8 29 16 WNW 1026,3 10
17.11.2017 07:00:00 8,7 1,1 7,6 24 13 - - NW 1026,2 10
17.11.2017 06:00:00 8,9 2,3 7,9 22 12 29 16 WNW 1025,9 10
17.11.2017 05:00:00 8,2 3,3 6,9 13 7 32 18 NW 1025,7 10
17.11.2017 04:00:00 8,7 3,6 7,8 24 13 - - NNW 1025,3 10
17.11.2017 03:00:00 8,9 2,2 7,8 26 14 36 19 NNW 1025,2 10
17.11.2017 02:00:00 9,0 3,1 8,0 26 14 32 18 NNW 1024,9 10
17.11.2017 01:00:00 9,1 2,3 7,8 22 12 - - N 1024,5 10
17.11.2017 00:00:00 9,2 2,7 8,2 24 13 36 19 N 1024,0 10
16.11.2017 23:00:00 9,6 3,5 8,9 29 16 40 21 NNW 1023,5 10
16.11.2017 22:00:00 9,6 4,5 8,8 34 18 - - NNW 1023,0 10
16.11.2017 21:00:00 9,9 5,3 9,1 37 20 47 25 NNW 1022,2 10
16.11.2017 20:00:00 10,3 7,5 9,7 39 21 47 25 NNW 1021,2 10
16.11.2017 19:00:00 9,2 7,2 8,7 37 20 - - NNW 1020,6 10
16.11.2017 18:00:00 10,4 9,4 10,5 34 18 43 23 WNW 1019,8 9
16.11.2017 17:00:00 11,0 9,7 10,4 31 17 36 19 W 1019,6 10
16.11.2017 16:00:00 11,4 10,4 11,2 26 14 - - WZW 1019,4 10
16.11.2017 15:00:00 11,4 10,8 11,4 26 14 32 18 WZW 1019,3 10
16.11.2017 14:00:00 11,3 10,8 11,3 29 16 43 23 ZW 1019,5 6
16.11.2017 13:00:00 11,5 10,9 11,5 31 17 - - ZZW 1019,8 5
16.11.2017 12:00:00 11,4 10,9 11,5 28 15 36 19 ZZW 1020,1 4,4
16.11.2017 11:00:00 10,8 10,4 10,8 24 13 29 16 ZZW 1020,7 4,2
16.11.2017 10:00:00 10,1 9,8 10,1 21 11 - - Z 1020,8 4,2
16.11.2017 09:00:00 10,3 9,8 10,2 21 11 25 14 Z 1020,6 5
16.11.2017 08:00:00 10,0 9,5 9,7 18 10 25 14 ZZW 1020,7 7
16.11.2017 07:00:00 10,1 9,6 9,8 21 11 - - ZZW 1020,5 10
16.11.2017 06:00:00 10,2 10,1 10,2 13 7 29 16 ZZW 1020,6 2,8
16.11.2017 05:00:00 10,3 10,2 10,3 21 11 29 16 ZZW 1020,9 2,2
16.11.2017 04:00:00 9,9 9,9 9,9 9 5 - - Z 1021,5 2,8
16.11.2017 03:00:00 9,8 9,6 9,7 18 10 29 16 ZZW 1021,9 10
16.11.2017 02:00:00 10,2 10,2 10,2 18 10 25 14 ZZW 1022,1 8
16.11.2017 01:00:00 10,0 10,0 9,9 16 9 - - ZZW 1022,4 2,3
16.11.2017 00:00:00 9,8 9,7 9,8 16 9 25 14 Z 1022,6 0,8
15.11.2017 23:00:00 9,7 9,7 9,8 18 10 22 12 Z 1022,9 4,6
15.11.2017 22:00:00 9,7 9,7 9,7 13 7 - - Z 1023,3 0,6
15.11.2017 21:00:00 9,3 9,3 9,4 11 6 18 10 Z 1023,6 1,0
15.11.2017 20:00:00 9,3 9,3 9,5 15 8 25 14 ZZO 1023,6 1,4
15.11.2017 19:00:00 9,7 9,5 9,8 16 9 - - Z 1023,7 0,7
15.11.2017 18:00:00 10,2 10,0 10,1 9 5 14 8 Z 1023,7 5
15.11.2017 17:00:00 10,5 10,1 10,5 11 6 18 10 Z 1023,8 4,5
15.11.2017 16:00:00 10,9 10,6 11,0 11 6 - - ZZW 1023,8 3,5
15.11.2017 15:00:00 10,8 10,3 11,0 13 7 18 10 Z 1023,7 2,3
15.11.2017 14:00:00 11,6 11,0 11,9 11 6 14 8 Z 1023,7 4,1
15.11.2017 13:00:00 11,3 10,8 11,5 11 6 - - Z 1023,9 3,1
15.11.2017 12:00:00 10,8 10,3 11,0 8 4 11 6 Z 1024,1 3,0
15.11.2017 11:00:00 11,3 10,7 11,6 8 4 7 4 Z 1024,1 4,5
15.11.2017 10:00:00 11,3 10,9 11,3 8 4 - - WZW 1023,8 4,8
15.11.2017 09:00:00 10,9 10,6 10,8 13 7 18 10 WZW 1023,4 5
15.11.2017 08:00:00 11,0 10,5 10,7 16 9 25 14 WZW 1022,7 4,6
15.11.2017 07:00:00 11,0 10,4 10,7 16 9 - - WZW 1022,3 7
15.11.2017 06:00:00 11,1 10,5 10,9 21 11 25 14 W 1022,2 6
15.11.2017 05:00:00 11,2 10,5 11,0 21 11 29 16 WZW 1022,3 7
15.11.2017 04:00:00 11,0 10,3 10,8 22 12 - - WZW 1022,0 6
15.11.2017 03:00:00 11,0 10,4 10,7 24 13 29 16 WZW 1022,2 8
15.11.2017 02:00:00 10,6 10,3 10,4 22 12 29 16 WZW 1022,1 6
15.11.2017 01:00:00 10,8 10,5 10,7 22 12 - - WZW 1022,1 4,1
15.11.2017 00:00:00 10,8 10,0 10,6 26 14 32 18 WZW 1021,9 2,7
14.11.2017 23:00:00 10,7 10,1 10,5 22 12 32 18 W 1021,8 7
14.11.2017 22:00:00 10,7 10,2 10,6 24 13 - - W 1021,8 5
14.11.2017 21:00:00 10,4 9,6 10,2 13 7 18 10 ZW 1021,7 8
14.11.2017 20:00:00 10,8 9,9 10,5 15 8 25 14 WZW 1021,6 4,5
14.11.2017 19:00:00 10,8 9,9 10,5 21 11 - - W 1021,3 7
14.11.2017 18:00:00 10,8 10,1 10,6 22 12 25 14 W 1021,0 6
14.11.2017 17:00:00 10,7 9,8 10,5 22 12 32 18 W 1020,6 6
14.11.2017 16:00:00 10,7 9,9 10,5 28 15 - - W 1020,3 9
14.11.2017 15:00:00 10,6 10,0 10,6 29 16 36 19 W 1019,9 8
14.11.2017 14:00:00 10,2 9,8 10,3 31 17 43 23 W 1019,9 2,5
14.11.2017 13:00:00 10,0 9,5 10,1 37 20 - - W 1019,5 7
14.11.2017 12:00:00 10,1 9,2 10,0 35 19 43 23 W 1019,4 3,4
14.11.2017 11:00:00 10,1 8,0 10,0 39 21 47 25 W 1019,5 10
14.11.2017 10:00:00 10,2 7,9 10,0 41 22 - - W 1019,1 10
14.11.2017 09:00:00 9,8 6,9 9,6 41 22 50 27 WZW 1018,9 10
14.11.2017 08:00:00 9,2 5,3 8,9 42 23 54 29 WZW 1018,4 10
14.11.2017 07:00:00 8,9 4,1 8,5 39 21 - - WZW 1018,7 10
14.11.2017 06:00:00 8,7 1,4 7,9 39 21 50 27 WZW 1019,5 10
14.11.2017 05:00:00 8,4 2,5 7,9 37 20 47 25 WZW 1019,6 10
14.11.2017 04:00:00 8,8 2,8 8,3 37 20 - - WZW 1020,2 10
14.11.2017 03:00:00 8,7 3,3 8,3 31 17 43 23 W 1020,7 10
14.11.2017 02:00:00 8,4 4,1 8,1 34 18 47 25 W 1021,1 10
14.11.2017 01:00:00 7,9 3,9 7,4 28 15 - - W 1021,6 10
14.11.2017 00:00:00 8,0 3,8 7,7 29 16 43 23 WNW 1021,8 10
13.11.2017 23:00:00 8,6 3,0 8,2 22 12 25 14 WNW 1021,9 10
13.11.2017 22:00:00 8,7 2,3 8,0 22 12 - - NW 1021,9 10
13.11.2017 21:00:00 8,6 2,6 7,6 28 15 40 21 NW 1021,7 10
13.11.2017 20:00:00 8,7 1,2 7,9 29 16 40 21 NNW 1021,5 10

tt = temperatuur
td = dauwpunt
tt 5cm = temperatuur 5cm
ff = windsnelheid
fx = windstoten
dd = windrichting
ppp = luchtdruk
vv = zicht

Weerstations in de omgeving